TimeCST,TemperatureF,Dew PointF,Humidity,Sea Level PressureIn,VisibilityMPH,Wind Direction,Wind SpeedMPH,Gust SpeedMPH,PrecipitationIn,Events,Conditions,WindDirDegrees,DateUTC
12:56 AM,41.0,23.0,49,29.37,-9999.0,West,13.8,-,N/A,,Unknown,270,2011-11-14 06:56:00
1:56 AM,37.9,25.0,60,29.39,-9999.0,West,5.8,-,N/A,,Unknown,270,2011-11-14 07:56:00
2:56 AM,37.0,24.1,59,29.39,-9999.0,WSW,10.4,-,N/A,,Unknown,240,2011-11-14 08:56:00
3:56 AM,37.0,24.1,59,29.39,-9999.0,West,8.1,-,N/A,,Unknown,260,2011-11-14 09:56:00
4:56 AM,36.0,24.1,62,29.39,-9999.0,West,10.4,-,N/A,,Unknown,260,2011-11-14 10:56:00
5:56 AM,37.0,25.0,62,29.41,-9999.0,West,15.0,21.9,N/A,,Unknown,280,2011-11-14 11:56:00
6:56 AM,35.1,26.1,70,29.42,-9999.0,NNW,6.9,-,N/A,,Unknown,340,2011-11-14 12:56:00
7:56 AM,35.1,27.0,72,29.43,-9999.0,WNW,11.5,18.4,N/A,,Unknown,290,2011-11-14 13:56:00
8:56 AM,37.9,28.0,68,29.44,-9999.0,WNW,21.9,31.1,N/A,,Unknown,290,2011-11-14 14:56:00
9:56 AM,41.0,28.9,62,29.44,-9999.0,WNW,21.9,29.9,N/A,,Unknown,290,2011-11-14 15:56:00
10:56 AM,44.1,28.0,53,29.44,-9999.0,West,18.4,25.3,N/A,,Unknown,280,2011-11-14 16:56:00
11:56 AM,45.0,27.0,49,29.44,-9999.0,West,24.2,29.9,N/A,,Unknown,270,2011-11-14 17:56:00
12:56 PM,48.0,24.1,39,29.43,-9999.0,WNW,24.2,32.2,N/A,,Unknown,290,2011-11-14 18:56:00
1:56 PM,48.9,21.9,35,29.44,-9999.0,West,24.2,34.5,N/A,,Unknown,280,2011-11-14 19:56:00
2:56 PM,48.0,23.0,37,29.47,-9999.0,WNW,20.7,32.2,N/A,,Unknown,300,2011-11-14 20:56:00
3:56 PM,46.9,23.0,39,29.49,-9999.0,WNW,16.1,-,N/A,,Unknown,300,2011-11-14 21:56:00
4:56 PM,41.0,21.9,47,29.52,-9999.0,West,8.1,-,N/A,,Unknown,280,2011-11-14 22:56:00
5:56 PM,39.0,23.0,53,29.53,-9999.0,WSW,8.1,-,N/A,,Unknown,250,2011-11-14 23:56:00
6:56 PM,35.1,21.9,59,29.55,-9999.0,WSW,6.9,-,N/A,,Unknown,240,2011-11-15 00:56:00
7:56 PM,30.9,19.0,61,29.56,-9999.0,SSW,9.2,-,N/A,,Unknown,210,2011-11-15 01:56:00
8:56 PM,28.9,19.0,67,29.56,-9999.0,SW,10.4,-,N/A,,Unknown,230,2011-11-15 02:56:00
9:56 PM,28.0,18.0,66,29.55,-9999.0,SW,9.2,-,N/A,,Unknown,220,2011-11-15 03:56:00
10:56 PM,34.0,19.9,56,29.54,-9999.0,SSW,11.5,-,N/A,,Unknown,210,2011-11-15 04:56:00
11:56 PM,35.1,21.0,57,29.53,-9999.0,South,3.5,-,N/A,,Unknown,170,2011-11-15 05:56:00